GW2283 Weather Reports


time (UTC)temp
C
wind
direction
speed
KPH
gust
KPH
rain 1hr
cm
rain 24hr
cm
rain mn
cm
humidity
%
barometer
mb
20260503072102 18 49 4.8 9.7 0.00 0.00 0.23 98 1015.9
20260503070602 19 49 4.8 8.0 0.00 0.00 0.23 98 1016.3
20260503054602 21 354 11.3 14.5 0.05 0.00 0.20 98 1016.3
20260503051601 21 345 0.0 0.0 0.08 0.00 0.15 98 1016.6
20260503044602 21 44 4.8 8.0 0.18 0.00 0.13 97 1016.3
20260503041601 21 267 0.0 0.0 0.25 0.00 0.08 97 1016.3
20260503035605 21 246 0.0 0.0 0.13 0.00 1.63 96 1013.5
20260503034601 21 310 0.0 11.3 0.10 0.00 1.60 96 1013.5
20260503033102 21 229 0.0 0.0 0.00 0.00 1.50 96 1013.5
20260503024602 21 160 0.0 0.0 0.00 0.00 1.50 96 1013.5
20260503023102 21 208 1.6 4.8 0.00 0.00 1.50 96 1013.5
20260503021602 21 193 0.0 6.4 0.00 0.00 1.50 97 1013.5
20260503014602 21 251 0.0 0.0 0.00 0.00 1.50 97 1013.5
20260503012602 21 265 0.0 1.6 0.00 0.00 1.50 97 1013.5
20260503011601 21 246 0.0 3.2 0.00 0.00 1.50 97 1013.5
20260503004602 21 163 1.6 8.0 0.00 0.00 1.50 98 1013.5
20260503003601 21 70 0.0 6.4 0.00 0.00 1.50 98 1013.5
20260503002103 21 263 1.6 4.8 0.03 0.00 1.50 98 1013.5
20260503000603 21 55 0.0 1.6 0.03 0.00 1.50 98 1013.5
20260502235102 21 237 0.0 4.8 0.05 0.00 1.50 98 1013.5
20260502233602 21 92 0.0 6.4 0.03 0.00 1.45 98 1013.5
20260502232601 21 197 0.0 6.4 0.05 0.00 1.45 98 1013.5
20260502231102 21 84 0.0 3.2 0.08 0.00 1.45 98 1013.5
20260502225602 21 247 0.0 1.6 0.08 0.00 1.42 98 1013.5
20260502224102 21 170 1.6 4.8 0.10 0.00 1.42 97 1013.5
20260502222602 22 111 9.7 9.7 0.10 0.00 1.42 97 1013.5
20260502215602 22 143 8.0 8.0 0.13 0.00 1.35 96 1012.9
20260502214101 22 176 0.0 4.8 0.10 0.00 1.32 96 1012.2
20260502212602 22 155 0.0 0.0 0.10 0.00 1.32 96 1012.5
20260502205601 22 203 0.0 0.0 0.00 0.00 1.22 94 1012.9
20260502204102 22 190 4.8 4.8 1.22 0.00 1.22 94 1013.2
20260502203101 22 242 0.0 4.8 1.22 0.00 1.22 94 1012.9
20260502201601 21 247 8.0 11.3 1.22 0.00 1.22 92 1012.9
20260502195102 23 282 27.4 32.2 0.53 0.00 0.53 85 1013.5
20260502193601 26 263 6.4 11.3 0.00 0.00 0.00 85 1012.9
20260502192103 27 170 6.4 11.3 0.00 0.00 0.00 84 1013.2
20260502190601 27 243 6.4 11.3 0.00 0.00 0.00 82 1013.2
20260502183602 27 223 8.0 9.7 0.00 0.00 0.00 81 1013.5
20260502182101 27 225 4.8 14.5 0.00 0.00 0.00 79 1013.5
20260502164102 29 212 11.3 14.5 0.00 0.00 0.00 75 1013.5
20260502162602 28 69 8.0 17.7 0.00 0.00 0.00 75 1013.5
20260502161102 29 189 6.4 19.3 0.00 0.00 0.00 74 1013.5
20260502151102 31 173 14.5 17.7 0.00 0.00 0.00 67 1013.2
20260502123101 22 111 4.8 9.7 0.00 0.00 0.00 95 1012.2
20260502121602 21 50 6.4 9.7 0.00 0.00 0.00 96 1012.2
20260502113101 20 144 4.8 4.8 0.00 0.00 0.00 99 1012.5
20260502111602 20 156 0.0 0.0 0.00 0.00 0.00 99 1012.2
20260502104601 19 132 0.0 0.0 0.00 0.00 0.00 99 1011.9
20260502103102 20 118 0.0 0.0 0.00 0.00 0.00 99 1011.9
20260502101602 20 137 0.0 0.0 0.00 0.00 0.00 98 1011.5